www.pogodaiklimat.ru

Погода и климат >> Архив погоды >> Индия >> Thondi


ПОГОДА в Thondi

  • Прогноз погоды в Thondi
  • Монитор погоды в Thondi
  • Климат города

АРХИВ ПОГОДЫ в Thondi

Время (UTC), дата Ветер
(напр.,м/с)
 
Видим.   Явления Облачность Т
(С)
Тd
(С)
f
(%)
Тe
(С)
Тes
(С)
Комфортность P
(гПа)
Po
(гПа)
Тmin
(С)
Tmax
(С)
R
(мм)
R24
(мм)
S
(см)
00 14.09 Ю 4 4000 м 4/3 600 м
[Sc Ci fib]
+29.0 +25.3 80 +42 +42 опасность
перегрева
1008.5 1007.9
03 14.09 Ю 2 10 км 4/3 600 м
[Sc diur, vesp Ci fib]
+30.0 +24.6 73 +43 +48 опасность
перегрева
1010.0 1009.4 +27.6 +36.4
06 14.09 Ю 2 10 км 4/3 600 м
[Sc diur, vesp Ci fib]
+33.8 +26.6 66 +51 +65 опасность
перегрева
1009.9 1009.3
09 14.09 Ю 4 10 км 3/1 600 м
[Sc Ci fib]
+31.0 +26.6 77 +47 +56 опасность
перегрева
1007.2 1006.6
12 14.09 Ю 4 10 км 3/1 600 м
[Sc Ci fib]
+29.6 +26.0 81 +44 +45 опасность
перегрева
1007.3 1006.7 +33.8
15 14.09 Ю 2 4000 м 3/1 600 м
[Sc Ci fib]
+28.2 +25.1 83 +41 +41 опасность
перегрева
1009.7 1009.1
18 14.09 штиль 0 4000 м 3/1 600 м
[Sc Ci fib]
+27.6 +23.5 78 +37 +37 очень
душно
1010.7 1010.1
21 14.09 Ю 2 4000 м 3/3 600 м
[Sc diur, vesp Ci fib]
+27.2 +24.3 84 +38 +38 очень
душно
1009.0 1008.4
00 15.09 штиль 0 4000 м 3/1 600 м
[Sc Ci fib]
+26.6 +23.7 84 +36 +36 очень
душно
1009.4 1007.8
03 15.09 штиль 0 10 км 4/1 600 м
[Sc Ac trans Ci fib]
+30.0 +22.7 65 +40 +46 очень
душно
1010.8 1010.2 +25.8 +33.8
06 15.09 ЮВ 2 10 км 3/0
[Ci fib]
+34.4 +22.5 50 +44 +63 опасность
перегрева
1010.7 1010.1
09 15.09 Ю 4 10 км 4/1 600 м
[Sc Ci fib]
+32.6 +26.9 72 +50 +59 опасность
перегрева
1007.1 1006.5
12 15.09 Ю 4 10 км 4/0 600 м
[Ci sp]
+29.8 +26.5 83 +46 +47 опасность
перегрева
1007.6 1007.0 +34.8
15 15.09 З 3 4000 м 3/0
[Ci sp]
+29.0 +24.7 78 +41 +41 опасность
перегрева
1008.9 1008.3
18 15.09 ЮЗ 2 4000 м 3/0
[Ci sp]
+28.8 +24.2 76 +40 +40 очень
душно
1009.6 1009.0
21 15.09 штиль 0 4000 м 3/3 600 м
[Sc]
+28.0 +24.9 83 +40 +40 очень
душно
1007.8 1007.2
00 16.09 штиль 0 4000 м 3/1 600 м
[Sc Ci fib]
+27.0 +22.3 75 +35 +35 очень
душно
1008.6 1008.0
03 16.09 штиль 0 10 км 8/3 600 м
[Sc Ac trans Ci fib]
+30.2 +25.4 76 +44 +48 опасность
перегрева
1010.3 1009.7 +26.5 +34.8
06 16.09 Ю 2 10 км 8/3 600 м
[Sc diur, vesp Ac trans Ci fib]
+32.0 +26.1 71 +48 +58 опасность
перегрева
1009.4 1008.8
09 16.09 Ю 4 10 км 8/3 600 м
[Sc diur, vesp Ac trans Ci fib]
+31.6 +28.1 82 +52 +57 опасность
перегрева
1006.0 1005.4
12 16.09 Ю 2 10 км 9/4 600 м
[Sc diur, vesp Ac trans Ci sp]
+30.4 +26.5 80 +47 +47 опасность
перегрева
1006.2 1005.6 +32.8
15 16.09 ЮЗ 2 4000 м {дождь} 9/4 600 м
[Sc diur, vesp Ac trans Ci sp]
+29.2 +26.1 83 +44 +44 опасность
перегрева
1008.0 1007.4 0.1
18 16.09 штиль 0 4000 м {дождь} 9/3 600 м
[Sc diur, vesp Ac trans Ci sp]
+27.6 +23.5 78 +37 +37 очень
душно
1008.8 1008.2 0.1
21 16.09 штиль 0 4000 м 9/3 600 м
[Sc diur, vesp Ac trans Ci sp]
+27.0 +23.5 81 +37 +37 очень
душно
1006.8 1006.2 0.1
00 17.09 штиль 0 4000 м 8/3 600 м
[Sc diur, vesp Ac trans Ci sp]
+27.0 +23.5 81 +37 +37 очень
душно
1007.0 1006.4 0.1
03 17.09 штиль 0 10 км 9/3 600 м
[Sc diur, vesp Ac trans Ci sp]
+29.2 +22.8 68 +39 +42 очень
душно
1008.6 1008.0 +26.6 +32.8 0.1
06 17.09 Ю 2 10 км 10/3 600 м
[Sc Ac As]
+32.4 +25.1 65 +46 +51 опасность
перегрева
1009.1 1008.5
09 17.09 Ю 2 10 км 10/4 600 м
[Sc Ac As]
+31.0 +23.8 66 +43 +45 опасность
перегрева
1006.3 1005.7
12 17.09 Ю 2 10 км 4/3 600 м
[Sc Ac As]
+30.6 +26.1 77 +46 +47 опасность
перегрева
1006.5 1005.9 +33.4
15 17.09 Ю 3 4000 м 6/3 600 м
[Sc Ac trans Ci fib]
+29.2 +26.1 83 +44 +44 опасность
перегрева
1007.6 1007.0
18 17.09 штиль 0 4000 м 6/3 600 м
[Sc Ac trans Ci fib]
+28.2 +25.1 83 +41 +41 опасность
перегрева
1008.1 1007.5
21 17.09 штиль 0 4000 м 4/1 600 м
[Sc Ac trans Ci fib]
+27.4 +24.5 84 +39 +39 очень
душно
1006.4 1005.8
00 18.09 штиль 0 4000 м 3/1 600 м
[Sc diur, vesp Ci fib]
+26.2 +23.0 83 +35 +35 очень
душно
1006.8 1006.2
03 18.09 штиль 0 10 км 5/3 600 м
[Sc Ci sp]
+28.8 +23.0 71 +39 +45 очень
душно
1009.1 1008.5 +25.4 +33.4
06 18.09 Ю 2 10 км 6/3 600 м
[Sc Ac trans Ci fib]
+32.2 +25.1 66 +46 +57 опасность
перегрева
1009.1 1008.5
09 18.09 Ю 4 10 км 5/3 600 м
[Sc Ci fib]
+32.4 +27.5 75 +51 +58 опасность
перегрева
1005.9 1005.3
12 18.09 Ю 4 10 км 8/4 600 м
[Sc Ac trans Ci sp]
+31.0 +27.1 80 +49 +49 опасность
перегрева
1005.7 1005.1 +33.6
15 18.09 З 2 4000 м 8/3 600 м
[Sc Cs]
+30.0 +26.4 81 +46 +46 опасность
перегрева
1007.5 1006.9
18 18.09 штиль 0 4000 м 6/3 600 м
[Sc Ac trans Ci fib]
+29.6 +21.9 63 +38 +38 очень
душно
1007.6 1007.0
21 18.09 штиль 0 4000 м 6/3 600 м
[Sc Ci sp]
+27.4 +21.4 70 +35 +35 очень
душно
1006.2 1005.6
00 19.09 штиль 0 4000 м 5/3 600 м
[Sc Ci sp]
+26.4 +21.9 76 +34 +34 очень
душно
1006.8 1006.2
03 19.09 штиль 0 10 км 6/3 600 м
[Sc Ci sp]
+30.0 +22.0 62 +39 +44 очень
душно
1009.6 1009.0 +26.0 +33.6
06 19.09 Ю 2 10 км 8/4 600 м
[Sc diur, vesp Ac trans Ci sp]
+34.0 +23.7 55 +45 +54 опасность
перегрева
1008.9 1008.3
09 19.09 10 км н/о +35.0 +23.6 52 +46 +58 опасность
перегрева
1005.9 1005.3
12 19.09 Ю 4 10 км 8/3 600 м
[Sc Ac trans Ci fib]
+30.6 +27.3 83 +49 +49 опасность
перегрева
1005.2 1004.6 +35.4
15 19.09 штиль 0 4000 м 8/3 600 м
[Sc diur, vesp Ac trans Ci fib]
+27.2 +23.1 78 +36 +36 очень
душно
1006.8 1006.2
18 19.09 штиль 0 4000 м 8/1 600 м
[Sc Ac trans Ci fib]
+26.0 +21.8 78 +33 +33 очень
душно
1006.6 1006.0
21 19.09 штиль 0 4000 м 6/1 600 м
[Sc Ci fib]
+26.0 +22.4 81 +34 +34 очень
душно
1004.6 1004.0
00 20.09 штиль 0 4000 м 5/3 600 м
[Sc Ci fib]
+26.0 +22.8 83 +35 +35 очень
душно
1004.5 1003.9
03 20.09 штиль 0 10 км 3/1 600 м
[Sc Ci fib]
+30.0 +22.0 62 +39 +46 очень
душно
1006.7 1006.1 +25.8 +35.4
06 20.09 Ю 2 10 км 4/1 600 м
[Sc Ac trans Ci sp]
+31.0 +23.5 64 +42 +57 опасность
перегрева
1006.6 1006.0
09 20.09 Ю 5 10 км 6/3 600 м
[Cb calv Ac trans Ci sp]
+32.6 +26.2 69 +49 +53 опасность
перегрева
1003.6 1003.0
12 20.09 Ю 6 10 км 6/1 600 м
[Cb calv Ac trans Ci sp]
+31.0 +25.4 72 +45 +45 опасность
перегрева
1003.6 1003.0 +33.6
15 20.09 Ю 5 4000 м 8/3 600 м
[Cu Sc Ac trans Cs]
+29.8 +23.4 69 +40 +40 очень
душно
1005.0 1004.4
18 20.09 З 5 4000 м 8/3 600 м
[Cu Sc Ac trans Cs]
+27.2 +24.6 86 +39 +39 очень
душно
1005.6 1005.3

 

Местоположение метеостанции Thondi (Tamil Nadu, Индия): широта 9.73 долгота 79.03 высота над уровнем моря 5 м.

В архиве по умолчанию представлена погода в Thondi за последнюю неделю. Архивные данные за месяц целиком и за предыдущие месяцы, начиная с января 2011 года, Вы можете получить, выбрав интересующий диапазон дат из раскрывающегося списка и нажав кнопку "Ввод!".


*Определитесь, кто Вы:
робот инопланетянин человек

Внимание! Время в таблицах - всемирное. Для получения местного времени необходимо прибавить поправку, которая в Thondi равна 5.5 ч.

Смотрите также архив погоды в соседних городах и на ближайших метеорологических станциях:

Погода в Pamban (Tamil Nadu, Индия) (54 км)
Погода в Adiramapattinam (Tamil Nadu, Индия) (77 км)
Погода в Kudimiamalai (Tamil Nadu, Индия) (84 км)
Погода в Madurai (Tamil Nadu, Индия) (102 км)
Погода в Madurai Airport (Tamil Nadu, Индия) (105 км)
Погода в Kovilangulam (Tamil Nadu, Индия) (106 км)
Погода в Jaffna (Шри Ланка) (109 км)
Погода в Thanjavur (Tamil Nadu, Индия) (117 км)
Погода в Tiruchirapalli (Tamil Nadu, Индия) (121 км)
Погода в Mannar (Шри Ланка) (128 км)

Пояснения к столбцам:

Ветер - указаны скорость ветра в м/с - средняя за 10 мин, порывы в срок и между сроками (в фигурных скобках) и направление, откуда дует ветер: С - северный, СВ - северо-восточный, В - восточный, ЮВ - юго-восточный, Ю - южный, ЮЗ - юго-западный, З - западный, СЗ - северо-западный.
Видимость - горизонтальная дальность видимости в метрах или километрах. При видимости от 1 до 10 км при отсутствии осадков обычно наблюдается дымка, при ухудшении видимости до 1 км и менее - туман. В сухую погоду видимость может ухудшаться дымом, пылью или мглою.
Явления - указаны атмосферные явления, наблюдавшиеся в срок или в последний час перед сроком; фигурными скобками обозначены явления, наблюдавшиеся между сроками (за 1-3 часа до срока); квадратными скобками обозначены град или гололедные отложения с указанием их диаметра в мм.
Облачность - указаны через наклонную черту общая и нижняя облачность в баллах и высота нижней границы облаков в метрах; квадратными скобками обозначены формы облаков: Ci - перистые, Cs - перисто-слоистые, Cc - перисто-кучевые, Ac - высококучевые, As - высокослоистые, Sc - слоисто-кучевые, Ns - слоисто-дождевые, Cu - кучевые, Cb - кучево-дождевые. Подробнее классификацию облаков см. в Атласе облаков (PDF).
T - Температура воздуха - температура, измеренная на высоте 2 м над землей.
Td - Температура точки росы - температура, при понижении до которой содержащийся в воздухе водяной пар достигнет насыщения.
f - Относительная влажность воздуха - влажноcть воздуха, измеренная на высоте 2 м над землей.
Te - Эффективная температура - температура, которую ощущает одетый по сезону человек в тени. Характеристика душности погоды. При расчете учитывается влияние влажности воздуха и скорости ветра на теплоощущения человека.
Tes - Эффективная температура на солнце - температура, которую ощущает человек, с поправкой на солнечный нагрев. Характеристика знойности погоды. Зависит от высоты солнца над горизонтом, облачности и скорости ветра. Ночью, в пасмурную погоду, а также при ветре 12 м/с и более поправка равна нулю.
P - Атмосферное давление - приведенное к уровню моря атмосферное давление.
Po - Атмосферное давление - измеренное на уровне метеостанции атмосферное давление.
Tmin - Минимальная температура - минимум температуры воздуха на высоте 2 м над землей.
Tmax - Максимальная температура - максимум температуры воздуха на высоте 2 м над землей.
R - Количество осадков - Количество выпавших осадков за период времени, мм. При наведении курсора мыши на число - период времени, за который выпало указанное количество осадков.
R24 - Количество осадков - Количество выпавших осадков за 24 часа, мм.
S - Снежный покров - Высота снежного покрова, см. При наведении курсора мыши на число - состояние снежного покрова и степень покрытия местности в баллах.